Find OneWeb SL0704

NORAD ID: 61609 Int'l Des: 2024-188 Owner: ONEWEBE Country: UK Constellation: oneweb operational
又名: ONEWEB-0704 spacetrack, celestrak
LEOCIRCULARPOLARONEWEB_TYPE

当前视图

正在加载3D地球...

About OneWeb SL0704

OneWeb SL0704 (NORAD 61609) is a oneweb constellation satellite launched Oct 20, 2024 by ONEWEBE of UK. It operates in LEO, CIRCULAR, POLAR, ONEWEB_TYPE orbit with a mass of 148.00 kg.

即将过境

Passes for default location (London). Set your location on the main map for personalized predictions.

高度历史

Loading altitude history...

两行轨道根数

1 61609U 24188R 26265.73055544 -.00000610 00000-0 -17827-2 0 9995
2 61609 87.8914 16.8438 0000750 120.9253 239.1949 13.10374905 96066
Epoch: Sep 22, 2026 • Age: 16 hours

当前状态

高度 1243.9 km
远地点 / 近地点 N/A
速度 7.23 km/s
星下点 -55.66°S, 134.77°W
发射日期 Oct 20, 2024
运行时间 1.9 years
类型 internet

技术详情

分类 Payload
质量 148.00 kg
干质量 140.00 kg
长度 1.30 m
直径 1.00 m
跨度 5.00 m
形状 ? Trapezoid+2 pan
制造商 ONEWUS
平台类型 ARROW
阶段状态 In Orbit
所有者/国家 ONEWEBE/UK

Most Searched